Temp
-13 -13 -13 -13 -13 -13 -13 -13 -13 -14 -14 -14 -14 -13 -14 -14 -14 -14 -14 -14 -14 -14 -14 -14 -14 -15 -15 -16 -16 -16 -17 -17 -16 -16 -16 -16 -16 -17
-13 -13 -13 -13 -13 -13 -13 -13 -13 -13 -14 -14 -14 -14 -14 -14 -14 -14 -14 -14 -14 -14 -15 -14 -14 -15 -15 -15 -14 -15 -15 -15 -16 -16 -16 -16 -17 -16
-13 -13 -13 -13 -13 -13 -13 -12 -13 -13 -13 -14 -14 -14 -14 -14 -15 -14 -14 -14 -14 -15 -14 -15 -15 -15 -15 -15 -15 -15 -15 -15 -15 -16 -16 -17 -17 -16
-14 -13 -13 -13 -13 -13 -13 -13 -13 -14 -13 -13 -14 -14 -14 -14 -14 -14 -14 -14 -15 -14 -15 -15 -15 -15 -15 -15 -15 -15 -15 -15 -16 -16 -16 -17 -17 -16
-14 -13 -13 -13 -13 -13 -13 -13 -13 -14 -13 -13 -14 -14 -14 -14 -14 -14 -14 -14 -15 -15 -15 -15 -15 -15 -15 -15 -15 -15 -15 -16 -17 -16 -16 -16 -17 -17
-13 -14 -13 -13 -13 -13 -13 -13 -13 -14 -14 -14 -14 -14 -14 -14 -15 -15 -15 -15 -15 -15 -15 -15 -15 -15 -15 -15 -16 -16 -16 -16 -17 -17 -17 -17 -17 -17
-13 -14 -13 -13 -13 -13 -13 -13 -14 -14 -14 -14 -14 -14 -14 -14 -15 -15 -15 -15 -15 -16 -16 -16 -15 -16 -16 -16 -16 -17 -17 -17 -17 -17 -17 -17 -17 -17
-13 -14 -15 -14 -14 -13 -14 -14 -14 -14 -14 -14 -14 -14 -15 -14 -15 -15 -15 -15 -15 -15 -15 -16 -16 -16 -16 -16 -16 -17 -17 -17 -17 -17 -17 -17 -17 -17
-14 -14 -15 -14 -14 -14 -14 -14 -14 -14 -14 -15 -14 -15 -15 -15 -15 -15 -15 -15 -15 -15 -16 -16 -16 -16 -16 -16 -17 -17 -17 -17 -17 -17 -17 -17 -17 -17
-15 -14 -15 -14 -14 -14 -14 -14 -14 -15 -15 -15 -15 -15 -15 -14 -15 -15 -15 -15 -15 -15 -15 -16 -16 -16 -16 -17 -17 -17 -17 -17 -17 -17 -17 -17 -17 -17
-15 -15 -15 -15 -14 -14 -14 -14 -15 -15 -15 -15 -15 -15 -15 -15 -15 -15 -15 -15 -16 -16 -16 -16 -16 -16 -16 -17 -17 -17 -17 -17 -17 -17 -17 -17 -18 -18
-15 -15 -14 -14 -14 -14 -14 -14 -15 -15 -15 -15 -15 -15 -15 -15 -15 -15 -16 -16 -16 -16 -16 -16 -16 -16 -17 -17 -17 -17 -17 -17 -17 -17 -17 -18 -18 -18
-14 -14 -14 -14 -14 -14 -14 -15 -15 -15 -15 -16 -15 -15 -15 -15 -16 -16 -16 -16 -16 -16 -17 -17 -17 -17 -17 -17 -17 -17 -17 -17 -18 -18 -18 -18 -18 -18
-14 -14 -14 -14 -14 -14 -15 -15 -15 -15 -15 -16 -16 -16 -16 -16 -16 -16 -16 -16 -16 -16 -16 -16 -17 -17 -17 -17 -17 -17 -18 -18 -18 -18 -18 -18 -19 -19
-14 -13 -14 -14 -15 -15 -15 -15 -15 -15 -16 -17 -16 -16 -16 -16 -16 -16 -16 -16 -17 -17 -17 -17 -17 -17 -17 -18 -18 -18 -18 -18 -18 -18 -19 -19 -19 -19
-14 -14 -15 -15 -15 -16 -16 -16 -15 -16 -17 -17 -17 -17 -16 -16 -16 -16 -17 -17 -17 -17 -17 -17 -18 -18 -18 -18 -18 -18 -18 -19 -19 -19 -19 -19 -19 -19
-16 -15 -15 -15 -15 -16 -16 -16 -17 -17 -18 -17 -17 -18 -17 -17 -17 -17 -17 -17 -17 -17 -18 -18 -18 -18 -18 -18 -18 -18 -18 -18 -19 -19 -19 -19 -20 -20
-16 -16 -16 -16 -16 -16 -16 -16 -17 -17 -18 -17 -17 -17 -18 -17 -17 -18 -18 -18 -18 -18 -18 -18 -18 -19 -19 -19 -19 -19 -19 -19 -19 -19 -19 -19 -21 -21
-16 -16 -16 -17 -17 -17 -16 -17 -17 -17 -18 -18 -17 -17 -17 -18 -18 -19 -19 -18 -18 -18 -18 -18 -18 -19 -19 -19 -19 -19 -19 -19 -19 -19 -21 -21 -21 -21
-16 -17 -17 -16 -17 -17 -17 -17 -17 -17 -17 -17 -17 -18 -18 -18 -18 -19 -18 -18 -18 -18 -18 -18 -18 -18 -19 -19 -19 -19 -19 -19 -20 -21 -22 -22 -22 -22
-17 -17 -17 -17 -17 -17 -17 -18 -18 -18 -17 -18 -18 -18 -19 -18 -19 -18 -18 -18 -18 -18 -18 -18 -19 -19 -19 -19 -19 -19 -20 -21 -22 -22 -22 -22 -22 -23
-18 -18 -18 -18 -18 -18 -18 -18 -18 -18 -18 -18 -18 -18 -19 -19 -19 -18 -18 -18 -18 -18 -18 -19 -19 -19 -19 -19 -19 -20 -22 -22 -22 -22 -22 -22 -23 -23
-19 -19 -19 -19 -19 -19 -19 -19 -19 -19 -19 -19 -19 -19 -19 -18 -19 -18 -18 -18 -18 -18 -19 -19 -20 -20 -20 -21 -22 -22 -22 -23 -23 -23 -23 -23 -24 -24
Height
5727 5726 5728 5729 5730 5730 5731 5730 5730 5731 5732 5728 5726 5724 5724 5725 5726 5726 5726 5727 5729 5730 5731 5733 5735 5737 5738 5739 5738 5739 5740 5741 5742 5744 5745 5745 5746 5745
5717 5717 5718 5720 5720 5721 5721 5722 5722 5721 5723 5723 5721 5720 5718 5718 5719 5719 5719 5719 5720 5723 5724 5726 5728 5729 5730 5730 5730 5730 5731 5731 5732 5735 5737 5736 5737 5736
5707 5707 5707 5710 5711 5711 5713 5713 5714 5713 5714 5715 5714 5713 5712 5711 5712 5711 5711 5712 5712 5713 5715 5717 5719 5720 5721 5721 5720 5720 5721 5721 5723 5726 5727 5727 5727 5726
5695 5695 5697 5699 5701 5702 5703 5704 5705 5705 5705 5706 5706 5706 5705 5703 5704 5704 5703 5703 5703 5705 5707 5708 5710 5711 5711 5712 5711 5711 5711 5712 5714 5715 5716 5717 5718 5718
5681 5684 5686 5687 5689 5692 5693 5694 5695 5696 5696 5697 5697 5696 5696 5694 5695 5695 5694 5695 5696 5698 5698 5699 5700 5701 5702 5702 5702 5702 5702 5703 5704 5705 5707 5708 5709 5709
5668 5671 5674 5676 5677 5680 5682 5683 5684 5686 5687 5687 5688 5688 5687 5685 5685 5687 5687 5686 5686 5688 5689 5690 5690 5691 5692 5694 5693 5694 5694 5695 5696 5697 5699 5700 5701 5700
5653 5658 5662 5664 5666 5669 5670 5673 5674 5676 5677 5678 5679 5679 5679 5677 5677 5678 5679 5679 5678 5679 5680 5681 5682 5683 5684 5685 5685 5686 5687 5687 5689 5690 5692 5692 5691 5690
5640 5645 5649 5652 5654 5657 5659 5661 5664 5665 5667 5668 5669 5670 5671 5670 5668 5669 5669 5670 5670 5671 5670 5671 5672 5674 5674 5675 5676 5678 5680 5681 5682 5683 5683 5683 5681 5680
5628 5632 5636 5640 5643 5645 5647 5651 5653 5655 5657 5658 5659 5660 5660 5660 5660 5660 5660 5660 5661 5661 5660 5661 5663 5664 5665 5667 5668 5670 5672 5673 5674 5674 5673 5672 5671 5670
5616 5620 5624 5628 5630 5634 5636 5639 5642 5644 5646 5648 5649 5649 5650 5650 5650 5651 5651 5650 5650 5651 5652 5652 5654 5656 5657 5659 5660 5662 5663 5664 5664 5664 5663 5662 5660 5659
5604 5607 5611 5615 5620 5622 5625 5628 5631 5633 5635 5638 5639 5639 5639 5640 5641 5641 5641 5641 5642 5643 5644 5646 5647 5648 5649 5650 5652 5654 5654 5655 5654 5653 5652 5651 5650 5648
5591 5595 5600 5603 5606 5611 5614 5617 5619 5622 5624 5627 5629 5629 5630 5631 5631 5632 5632 5633 5634 5634 5637 5638 5639 5639 5640 5642 5643 5645 5645 5644 5643 5643 5641 5639 5637 5635
5580 5584 5588 5592 5596 5598 5601 5604 5608 5610 5613 5616 5618 5619 5620 5621 5622 5624 5624 5625 5625 5626 5628 5628 5630 5631 5632 5633 5634 5635 5634 5633 5632 5630 5628 5627 5625 5622
5568 5572 5576 5579 5583 5586 5590 5593 5597 5598 5601 5604 5606 5608 5610 5612 5613 5615 5616 5617 5617 5617 5619 5620 5621 5622 5623 5623 5623 5623 5622 5620 5619 5617 5616 5614 5611 5608
5555 5560 5566 5568 5571 5573 5577 5581 5584 5586 5589 5592 5595 5597 5599 5601 5603 5606 5607 5609 5610 5610 5611 5611 5611 5611 5612 5611 5611 5611 5610 5608 5607 5605 5603 5600 5597 5593
5543 5547 5552 5555 5557 5560 5565 5568 5571 5575 5578 5580 5583 5585 5588 5590 5592 5594 5596 5598 5599 5600 5600 5600 5600 5600 5600 5599 5598 5598 5597 5596 5594 5591 5589 5585 5581 5577
5532 5536 5539 5540 5544 5547 5551 5555 5559 5562 5566 5568 5571 5573 5576 5578 5579 5581 5583 5585 5586 5588 5588 5588 5587 5587 5586 5586 5585 5584 5583 5581 5579 5576 5573 5569 5565 5561
5521 5524 5528 5531 5533 5536 5538 5542 5545 5549 5553 5556 5558 5561 5563 5565 5566 5567 5570 5572 5573 5573 5573 5573 5573 5574 5574 5573 5572 5570 5568 5566 5563 5561 5557 5553 5549 5545
5509 5511 5514 5517 5521 5524 5526 5529 5534 5537 5540 5543 5545 5547 5549 5551 5553 5554 5556 5559 5560 5560 5560 5560 5561 5561 5560 5559 5557 5555 5554 5551 5548 5545 5541 5537 5534 5530
5496 5499 5502 5505 5508 5510 5514 5517 5519 5524 5527 5530 5532 5534 5536 5539 5540 5541 5543 5545 5545 5545 5546 5546 5546 5545 5544 5543 5542 5540 5537 5535 5531 5528 5525 5521 5518 5512
5482 5485 5488 5492 5495 5498 5502 5505 5508 5510 5512 5516 5519 5521 5524 5525 5527 5528 5529 5529 5530 5530 5530 5530 5530 5529 5528 5526 5523 5522 5519 5517 5515 5512 5508 5505 5499 5493
5467 5470 5474 5479 5482 5486 5490 5492 5495 5498 5499 5501 5504 5507 5509 5511 5512 5513 5513 5514 5514 5513 5512 5512 5511 5511 5509 5508 5507 5504 5503 5501 5499 5496 5491 5486 5480 5473
5455 5457 5460 5464 5468 5472 5475 5478 5480 5483 5485 5487 5489 5491 5492 5494 5495 5496 5496 5497 5497 5496 5496 5496 5495 5494 5492 5491 5491 5489 5487 5485 5482 5478 5473 5467 5462 5456
Wind_Speed
35 33 33 34 35 36 35 31 30 27 27 27 25 23 25 28 29 31 27 35 39 34 29 29 29 34 39 45 49 47 46 45 43 38 31 30 32 35
40 38 35 36 37 35 36 32 31 29 29 26 26 27 27 30 32 29 28 26 30 29 31 33 34 34 35 36 38 41 45 45 42 42 34 31 34 37
45 42 38 37 38 34 35 34 32 30 30 28 28 27 32 30 30 31 33 34 28 33 35 38 38 40 40 42 43 42 42 42 40 34 33 34 35 38
50 46 41 39 38 37 35 36 32 33 31 31 29 30 31 36 35 33 31 29 29 35 33 36 37 39 41 41 40 41 40 35 29 32 36 34 34 34
51 48 43 42 39 39 37 38 34 34 33 34 31 31 31 34 34 30 23 28 34 35 37 35 36 38 40 38 38 38 39 31 30 34 32 31 31 32
51 50 44 42 41 42 40 39 35 35 34 35 33 31 32 32 33 32 30 29 34 33 32 35 37 36 33 33 35 33 33 32 27 26 28 30 33 34
52 50 44 44 44 44 42 40 36 35 35 34 36 32 30 30 31 33 34 31 27 33 36 35 35 36 33 36 34 30 29 26 26 27 31 34 36 37
52 53 50 46 46 44 42 40 38 37 36 35 36 33 30 33 32 36 34 36 34 37 41 39 37 36 35 33 29 30 31 27 28 30 32 34 36 37
48 51 48 46 46 44 43 41 40 37 37 37 37 35 34 33 34 35 34 35 41 38 36 36 34 31 29 30 29 31 31 31 33 34 35 36 37 39
45 44 46 45 44 44 44 44 41 40 37 37 39 35 37 34 34 36 35 37 39 37 34 37 36 34 33 33 32 32 33 35 36 37 37 38 39 40
49 45 46 45 45 45 46 44 43 41 39 37 40 37 37 35 36 34 36 36 34 29 32 33 31 31 34 35 35 35 37 40 40 39 40 40 42 43
39 42 45 46 43 46 46 45 46 41 39 39 39 37 36 34 36 35 34 37 36 35 37 37 34 31 33 35 36 38 42 40 41 40 42 44 45 46
44 45 43 45 46 49 48 47 46 41 40 40 40 36 33 34 35 35 29 37 32 36 31 28 29 29 31 33 35 38 41 41 42 44 45 47 48 51
45 45 45 46 45 47 47 45 44 41 41 42 40 36 32 33 31 32 32 30 29 29 36 32 32 32 34 35 37 39 42 44 45 48 49 48 48 53
44 40 48 49 42 43 46 47 46 44 44 44 41 39 36 35 34 34 32 32 33 33 34 34 34 34 34 39 41 43 44 45 47 48 47 50 55 59
45 42 42 41 42 49 53 48 47 47 46 43 43 41 40 39 39 38 37 37 37 39 37 36 35 35 38 40 46 46 46 46 47 48 52 57 60 60
38 46 41 44 48 46 43 43 44 47 45 45 39 41 42 43 42 41 41 41 40 40 43 45 45 42 43 45 46 48 50 50 52 55 60 62 61 60
40 44 50 50 46 43 42 42 44 48 45 44 46 44 43 45 48 52 49 44 40 40 39 37 37 41 44 45 46 48 50 55 59 61 63 62 58 58
43 40 41 48 49 52 51 46 49 51 48 48 48 48 48 45 47 48 45 39 45 41 39 41 42 45 47 51 53 55 58 60 62 62 58 57 59 62
47 42 39 42 46 45 44 44 56 50 46 48 52 50 48 47 45 40 45 50 49 48 48 50 51 54 57 59 61 64 64 61 57 56 56 60 63 66
48 47 47 50 45 44 45 46 47 48 52 49 51 47 48 47 46 47 50 52 52 55 55 56 56 57 60 61 63 63 61 57 53 55 60 65 66 67
43 49 47 47 45 43 44 43 43 45 45 46 49 49 53 52 54 57 55 58 61 61 61 61 61 62 63 63 63 59 53 54 57 61 64 66 68 69
35 41 48 53 54 52 53 52 49 50 49 53 55 55 57 59 62 61 63 63 63 64 63 62 59 56 56 55 52 52 56 59 62 63 67 68 68 69
Wind_Direction
263 266 270 271 273 275 275 269 272 277 280 292 295 279 263 256 258 258 260 248 248 264 255 252 254 254 255 257 258 253 254 259 264 269 269 269 273 278
261 264 268 270 269 270 273 270 271 276 280 279 286 276 270 263 255 258 261 250 242 244 257 256 254 259 263 269 273 271 266 266 267 268 266 263 276 271
264 263 265 264 264 265 270 270 270 273 277 280 280 280 272 270 263 264 257 254 253 255 254 260 254 258 264 270 273 270 269 269 265 264 262 262 263 270
259 260 262 261 262 263 266 266 267 269 273 277 279 276 277 268 262 261 270 266 257 254 253 257 257 263 267 272 272 272 270 264 257 251 254 259 267 265
256 258 257 259 258 260 264 263 264 265 270 275 278 278 278 276 265 263 269 264 261 252 261 265 261 262 265 269 270 270 263 247 248 253 264 264 261 265
255 254 253 257 257 257 261 261 261 263 268 272 276 277 277 281 262 258 269 263 261 263 255 255 261 262 263 261 261 262 260 254 256 260 261 262 267 269
253 250 252 253 255 255 259 260 260 261 265 268 274 274 272 286 267 256 257 259 259 255 255 258 260 257 257 253 254 256 254 250 255 256 260 267 271 274
251 249 245 252 254 254 259 259 258 259 263 263 268 270 269 273 275 256 255 254 260 260 259 257 255 251 259 253 249 249 249 251 258 263 269 272 274 278
247 248 247 246 255 253 255 256 257 258 259 259 264 265 268 270 277 260 256 258 259 261 259 252 248 252 247 248 247 251 252 258 263 268 274 277 280 282
244 244 245 252 253 253 253 255 256 257 257 258 260 264 263 267 275 261 259 250 262 257 250 249 247 248 246 244 249 247 249 260 270 275 275 278 280 283
242 247 247 250 254 252 253 254 254 254 257 258 259 263 263 266 266 271 260 257 252 250 250 254 259 259 251 248 246 251 257 265 271 274 278 279 282 285
243 243 249 250 252 248 250 251 253 254 255 256 255 259 257 259 266 268 257 248 240 256 256 255 256 257 250 249 253 257 263 269 272 275 279 282 284 282
245 245 247 246 248 251 251 249 252 255 254 253 253 255 256 256 256 259 254 239 242 249 251 255 255 256 255 254 256 260 264 269 274 275 277 279 278 279
245 244 250 241 249 249 248 250 255 254 253 252 252 251 250 249 248 251 252 258 259 247 246 252 259 260 261 263 265 270 272 272 270 272 275 278 282 286
245 242 232 245 253 249 247 250 254 251 249 249 249 247 246 246 247 245 247 250 249 249 253 256 261 264 271 272 270 267 267 267 271 277 280 283 284 285
244 244 245 244 255 248 238 248 244 249 247 245 251 247 248 247 248 250 251 253 256 255 257 259 259 265 264 267 265 265 265 269 273 276 277 280 281 287
226 237 240 241 248 240 243 238 247 245 248 243 257 246 248 250 250 252 255 258 259 259 260 263 266 264 259 258 260 261 264 270 271 273 274 278 285 287
233 237 234 245 252 250 243 249 253 247 243 247 252 256 251 253 251 255 252 254 255 259 265 270 261 257 255 258 265 268 266 265 268 272 278 283 285 288
237 245 248 240 248 244 250 246 245 248 249 250 249 249 253 255 259 260 253 256 261 260 263 267 256 258 260 263 264 265 267 269 274 278 281 283 286 289
229 240 233 233 236 244 243 253 240 244 249 252 259 247 249 253 263 253 246 258 254 255 262 259 255 255 259 265 265 266 269 273 274 278 284 287 288 290
237 234 228 230 233 234 243 249 248 247 249 255 254 246 252 255 258 250 256 258 255 256 260 256 254 256 258 259 260 264 269 275 280 283 285 287 289 291
236 231 231 227 227 229 232 235 240 244 244 247 242 240 250 253 254 249 250 260 260 259 256 252 252 253 255 261 268 273 276 280 284 286 287 288 290 291
223 222 224 228 231 234 233 234 235 239 238 235 239 243 245 249 253 253 256 259 257 254 252 252 258 263 264 268 273 280 283 285 286 286 287 288 289 293